Volver al catálogo

STARLINK-30765

ActivoComunicacionesVLEO
NORAD 58119·PAYLOAD·🇺🇸 United States

Lanzado Oct 22, 2023 desde Cape Canaveral Space Force Station

Loading…

Próximos Pases (próximas 24 horas)

TLE

ActualizadoSource: CelesTrak SupGP

Época: Sep 14, 2026, 14:38 UTC

1 58119C 23162B   26257.61020833  .00046300  00000+0  16776-2 0  2571
2 58119  43.0018 145.4027 0001546 262.4662  36.0573 15.27542936    18

Sigue STARLINK-30765 en tiempo real con AllMySat

Download on the App Store